ДАННЫЕ О ПОГОДЕ

СЕГОДНЯ
Time Темп. Т росы. Влаж. Давл. 1h Prec. 24h Prec.
00:00 3.4 1.9 90 1022.2 0.0000 0.0000
00:10 3.3 1.8 90 1022.2 0.0000 0.0000
00:20 3.3 1.8 90 1022.1 0.0000 0.0000
00:30 3.2 1.7 90 1022 0.0000 0.0000
00:40 3.2 1.7 90 1022 0.0000 0.0000
00:50 3.2 1.7 90 1021.7 0.0000 0.0000
01:00 3 1.5 90 1021.7 0.0000 0.0000
01:11 2.9 1.4 90 1021.7 0.0000 0.0000
01:21 2.9 1.4 90 1021.5 0.0000 0.0000
01:31 2.9 1.4 90 1021.6 0.0000 0.0000
01:41 2.7 1.2 90 1021.6 0.0000 0.0000
01:52 2.6 1.1 90 1021.8 0.0000 0.0000
02:02 2.5 1.2 91 1021.8 0.0000 0.0000
02:11 2.5 1.2 91 1021.8 0.0000 0.0000
02:21 2.4 1.1 91 1021.9 0.0000 0.0000
02:32 2.4 1.1 91 1021.8 0.0000 0.0000
02:42 2.3 1 91 1021.8 0.0000 0.0000
02:51 2.2 0.9 91 1021.7 0.0000 0.0000
03:02 2.2 0.9 91 1021.8 0.0000 0.0000
03:12 2.1 0.8 91 1021.8 0.0000 0.0000
03:22 2.1 0.8 91 1021.7 0.0000 0.0000
03:32 2 0.7 91 1021.7 0.0000 0.0000
03:42 1.9 0.7 92 1021.5 0.0000 0.0000
03:52 1.9 0.7 92 1021.5 0.0000 0.0000
04:02 1.9 0.7 92 1021.4 0.0000 0.0000
04:13 1.8 0.6 92 1021.4 0.0000 0.0000
04:22 1.8 0.6 92 1021.3 0.0000 0.0000
04:32 1.7 0.5 92 1021.3 0.0000 0.0000
04:42 1.7 0.5 92 1021.2 0.1010 0.1000
04:53 1.6 0.4 92 1021.3 0.1010 0.1000
05:03 1.6 0.4 92 1021.2 0.1010 0.1000
05:12 1.7 0.5 92 1021.2 0.1010 0.1000
05:23 1.6 0.4 92 1021.2 0.1010 0.1000
05:33 1.7 0.7 93 1021.1 0.1010 0.1000
05:43 1.7 0.5 92 1021 0.0000 0.1000
05:53 1.6 0.4 92 1021 0.0000 0.1000
06:03 1.6 0.6 93 1021 0.0000 0.1000
06:13 1.7 0.7 93 1020.9 0.0000 0.1000
06:23 1.6 0.6 93 1020.9 0.0000 0.1000
06:34 1.7 0.7 93 1020.9 0.0000 0.1000
06:43 1.6 0.6 93 1020.8 0.0000 0.1000
06:53 1.5 0.5 93 1020.7 0.0000 0.1000
07:03 1.6 0.7 94 1020.6 0.0000 0.1000
07:14 1.6 0.7 94 1020.5 0.0000 0.1000
07:24 1.6 0.6 93 1020.5 0.0000 0.1000
07:33 1.6 0.6 93 1020.5 0.0000 0.1000
07:44 1.6 0.6 93 1020.4 0.0000 0.1000
07:54 1.6 0.6 93 1020.4 0.0000 0.1000
08:04 1.6 0.6 93 1020.3 0.0000 0.1000
08:14 1.5 0.5 93 1020.4 0.0000 0.1000
08:24 1.5 0.5 93 1020.5 0.0000 0.1000
08:34 1.4 0.4 93 1020.5 0.0000 0.1000
08:44 1.5 0.5 93 1020.6 0.0000 0.1000
08:55 1.5 0.5 93 1020.6 0.0000 0.1000
09:04 1.6 0.6 93 1020.7 0.0000 0.1000
09:14 1.7 0.8 94 1020.6 0.0000 0.1000
09:24 1.8 0.9 94 1020.7 0.0000 0.1000
09:35 2 1.1 94 1020.9 0.0000 0.1000
09:45 2.3 1.4 94 1020.9 0.0000 0.1000
09:54 2.6 1.9 95 1020.9 0.0000 0.1000
10:05 2.9 2.2 95 1020.9 0.0000 0.1000
10:15 3.2 2.5 95 1021 0.0000 0.1000
10:25 3.3 2.4 94 1021 0.0000 0.1000
10:35 3.5 2.6 94 1021 0.0000 0.1000
10:45 3.7 3 95 1020.9 0.0000 0.1000
10:55 3.8 2.9 94 1021 0.0000 0.1000
11:05 4 3.1 94 1021 0.0000 0.1000
11:16 4.4 3.7 95 1020.8 0.0000 0.1000
11:25 4.7 4 95 1020.7 0.0000 0.1000
11:35 5 4.3 95 1020.6 0.0000 0.1000
11:45 5.4 4.7 95 1020.6 0.0000 0.1000
11:56 5.8 5.1 95 1020.4 0.0000 0.1000
12:06 6.3 5.4 94 1020.4 0.0000 0.1000
12:15 6.6 5.6 93 1020.5 0.0000 0.1000
12:26 7 5.8 92 1020.5 0.0000 0.1000
12:36 7.3 5.9 91 1020.5 0.0000 0.1000
12:46 7.6 6.1 90 1020.4 0.0000 0.1000
12:56 7.8 6.3 90 1020.3 0.0000 0.1000
13:04 7.9 6.2 89 1020.2 0.0000 0.1000
13:14 8 6.3 89 1020.1 0.0000 0.1000
13:25 8.1 6.4 89 1020 0.0000 0.1000
13:37 8.6 6.9 89 1020 0.0000 0.1000

СТАТИСТИКА ЗА ДЕНЬ

2021-10-25
TЕМПЕРАТУРА
СРЕДНЯЯ
3.0
МАКСИМАЛЬНАЯ
8.6
13:37
МИНИМАЛЬНАЯ
1.4
08:34
ДАВЛЕНИЕ
СРЕДНЯЯ
1021.0
МАКСИМАЛЬНАЯ
1022.2
00:00
МИНИМАЛЬНАЯ
1020.0
13:25
ТОЧКА РОСЫ
СРЕДНЯЯ
1.9
МАКСИМАЛЬНАЯ
6.9
13:37
МИНИМАЛЬНАЯ
0.4
04:53
ВЛАЖНОСТЬ
СРЕДНЯЯ
92
МАКСИМАЛЬНАЯ
95
09:54
МИНИМАЛЬНАЯ
89
13:04
ОСАДКИ
КОЛИЧЕСТВО ОСАДКОВ В ЧАС
0.1
КОЛИЧЕСТВО ОСАДКОВ В ДЕНЬ
0.1
TЕМПЕРАТУРА (°C)
МИНИМАЛЬНАЯ
1.4
МАКСИМАЛЬНАЯ
8.6
СРЕДНЯЯ
3.0
ДАВЛЕНИЕ (hpa)
МИНИМАЛЬНАЯ
1020.0
МАКСИМАЛЬНАЯ
1022.2
СРЕДНЯЯ
1021.0
УСТРОЙСТВО